#datetime,building,power
2023-11-29T00:00:00,axn,30.31
2023-11-29T00:01:00,axn,29.93
2023-11-29T00:02:00,axn,29.79
2023-11-29T00:03:00,axn,30.06
2023-11-29T00:04:00,axn,29.98
2023-11-29T00:05:00,axn,30.07
2023-11-29T00:06:00,axn,29.77
2023-11-29T00:07:00,axn,30.74
2023-11-29T00:08:00,axn,30.55
2023-11-29T00:09:00,axn,30.67
2023-11-29T00:10:00,axn,30.66
2023-11-29T00:11:00,axn,30.48
2023-11-29T00:12:00,axn,30.95
2023-11-29T00:13:00,axn,30.95
2023-11-29T00:14:00,axn,31.07
2023-11-29T00:15:00,axn,30.87
2023-11-29T00:16:00,axn,45.80
2023-11-29T00:17:00,axn,45.26
2023-11-29T00:18:00,axn,45.83
2023-11-29T00:19:00,axn,45.13
2023-11-29T00:20:00,axn,44.54
2023-11-29T00:21:00,axn,44.48
2023-11-29T00:22:00,axn,41.04
2023-11-29T00:23:00,axn,40.80
2023-11-29T00:24:00,axn,40.76
2023-11-29T00:25:00,axn,40.58
2023-11-29T00:26:00,axn,40.42
2023-11-29T00:27:00,axn,30.29
2023-11-29T00:28:00,axn,30.48
2023-11-29T00:29:00,axn,30.61
2023-11-29T00:30:00,axn,30.52
2023-11-29T00:31:00,axn,30.39
2023-11-29T00:32:00,axn,30.68
2023-11-29T00:33:00,axn,30.53
2023-11-29T00:34:00,axn,30.26
2023-11-29T00:35:00,axn,30.51
2023-11-29T00:36:00,axn,30.59
2023-11-29T00:37:00,axn,30.98
2023-11-29T00:38:00,axn,30.79
2023-11-29T00:39:00,axn,30.89
2023-11-29T00:40:00,axn,31.00
2023-11-29T00:41:00,axn,30.95
2023-11-29T00:42:00,axn,30.99
2023-11-29T00:43:00,axn,30.67
2023-11-29T00:44:00,axn,30.39
2023-11-29T00:45:00,axn,30.10
2023-11-29T00:46:00,axn,29.88
2023-11-29T00:47:00,axn,29.95
2023-11-29T00:48:00,axn,29.94
2023-11-29T00:49:00,axn,44.96
2023-11-29T00:50:00,axn,30.12
2023-11-29T00:51:00,axn,29.78
2023-11-29T00:52:00,axn,29.85
2023-11-29T00:53:00,axn,44.73
2023-11-29T00:54:00,axn,29.85
2023-11-29T00:55:00,axn,29.38
2023-11-29T00:56:00,axn,29.37
2023-11-29T00:57:00,axn,29.47
2023-11-29T00:58:00,axn,29.64
2023-11-29T00:59:00,axn,29.73
2023-11-29T01:00:00,axn,29.14
2023-11-29T01:01:00,axn,29.33
2023-11-29T01:02:00,axn,29.19
2023-11-29T01:03:00,axn,29.10
2023-11-29T01:04:00,axn,29.72
2023-11-29T01:05:00,axn,29.23
2023-11-29T01:06:00,axn,29.33
2023-11-29T01:07:00,axn,29.86
2023-11-29T01:08:00,axn,28.53
2023-11-29T01:09:00,axn,28.70
2023-11-29T01:10:00,axn,28.27
2023-11-29T01:11:00,axn,28.41
2023-11-29T01:12:00,axn,28.22
2023-11-29T01:13:00,axn,28.18
2023-11-29T01:14:00,axn,28.32
2023-11-29T01:15:00,axn,27.97
2023-11-29T01:16:00,axn,28.07
2023-11-29T01:17:00,axn,28.11
2023-11-29T01:18:00,axn,28.33
2023-11-29T01:19:00,axn,28.37
2023-11-29T01:20:00,axn,28.39
2023-11-29T01:21:00,axn,28.16
2023-11-29T01:22:00,axn,28.59
2023-11-29T01:23:00,axn,28.06
2023-11-29T01:24:00,axn,28.26
2023-11-29T01:25:00,axn,28.29
2023-11-29T01:26:00,axn,28.20
2023-11-29T01:27:00,axn,27.97
2023-11-29T01:28:00,axn,28.07
2023-11-29T01:29:00,axn,27.77
2023-11-29T01:30:00,axn,30.02
2023-11-29T01:31:00,axn,30.83
2023-11-29T01:32:00,axn,27.89
2023-11-29T01:33:00,axn,28.24
2023-11-29T01:34:00,axn,28.07
2023-11-29T01:35:00,axn,27.99
2023-11-29T01:36:00,axn,27.99
2023-11-29T01:37:00,axn,28.23
2023-11-29T01:38:00,axn,28.08
2023-11-29T01:39:00,axn,28.28
2023-11-29T01:40:00,axn,28.26
2023-11-29T01:41:00,axn,28.44
2023-11-29T01:42:00,axn,27.99
2023-11-29T01:43:00,axn,28.14
2023-11-29T01:44:00,axn,28.39
2023-11-29T01:45:00,axn,28.61
2023-11-29T01:46:00,axn,28.45
2023-11-29T01:47:00,axn,28.59
2023-11-29T01:48:00,axn,28.63
2023-11-29T01:49:00,axn,28.63
2023-11-29T01:50:00,axn,28.66
2023-11-29T01:51:00,axn,28.54
2023-11-29T01:52:00,axn,28.45
2023-11-29T01:53:00,axn,28.17
2023-11-29T01:54:00,axn,28.11
2023-11-29T01:55:00,axn,28.53
2023-11-29T01:56:00,axn,27.83
2023-11-29T01:57:00,axn,27.69
2023-11-29T01:58:00,axn,27.58
2023-11-29T01:59:00,axn,28.00
2023-11-29T02:00:00,axn,27.22
2023-11-29T02:01:00,axn,27.40
2023-11-29T02:02:00,axn,27.21
2023-11-29T02:03:00,axn,27.78
2023-11-29T02:04:00,axn,27.23
2023-11-29T02:05:00,axn,27.30
2023-11-29T02:06:00,axn,27.30
2023-11-29T02:07:00,axn,27.52
2023-11-29T02:08:00,axn,27.35
2023-11-29T02:09:00,axn,27.95
2023-11-29T02:10:00,axn,27.59
2023-11-29T02:11:00,axn,27.60
2023-11-29T02:12:00,axn,27.34
2023-11-29T02:13:00,axn,27.82
2023-11-29T02:14:00,axn,27.38
2023-11-29T02:15:00,axn,27.59
2023-11-29T02:16:00,axn,27.62
2023-11-29T02:17:00,axn,27.88
2023-11-29T02:18:00,axn,27.82
2023-11-29T02:19:00,axn,27.88
2023-11-29T02:20:00,axn,27.75
2023-11-29T02:21:00,axn,27.59
2023-11-29T02:22:00,axn,27.62
2023-11-29T02:23:00,axn,27.80
2023-11-29T02:24:00,axn,27.47
2023-11-29T02:25:00,axn,27.55
2023-11-29T02:26:00,axn,27.47
2023-11-29T02:27:00,axn,28.16
2023-11-29T02:28:00,axn,27.59
2023-11-29T02:29:00,axn,27.65
2023-11-29T02:30:00,axn,27.60
2023-11-29T02:31:00,axn,28.02
2023-11-29T02:32:00,axn,27.74
2023-11-29T02:33:00,axn,27.56
2023-11-29T02:34:00,axn,27.77
2023-11-29T02:35:00,axn,27.39
2023-11-29T02:36:00,axn,27.58
2023-11-29T02:37:00,axn,27.64
2023-11-29T02:38:00,axn,27.59
2023-11-29T02:39:00,axn,27.79
2023-11-29T02:40:00,axn,27.51
2023-11-29T02:41:00,axn,27.31
2023-11-29T02:42:00,axn,27.78
2023-11-29T02:43:00,axn,27.48
2023-11-29T02:44:00,axn,27.39
2023-11-29T02:45:00,axn,27.61
2023-11-29T02:46:00,axn,27.24
2023-11-29T02:47:00,axn,29.62
2023-11-29T02:48:00,axn,27.76
2023-11-29T02:49:00,axn,27.60
2023-11-29T02:50:00,axn,27.57
2023-11-29T02:51:00,axn,27.62
2023-11-29T02:52:00,axn,27.20
2023-11-29T02:53:00,axn,27.09
2023-11-29T02:54:00,axn,27.16
2023-11-29T02:55:00,axn,27.30
2023-11-29T02:56:00,axn,27.11
2023-11-29T02:57:00,axn,27.10
2023-11-29T02:58:00,axn,27.37
2023-11-29T02:59:00,axn,26.92
2023-11-29T03:00:00,axn,27.02
2023-11-29T03:01:00,axn,26.92
2023-11-29T03:02:00,axn,27.01
2023-11-29T03:03:00,axn,27.05
2023-11-29T03:04:00,axn,27.22
2023-11-29T03:05:00,axn,26.69
2023-11-29T03:06:00,axn,26.81
2023-11-29T03:07:00,axn,26.87
2023-11-29T03:08:00,axn,27.05
2023-11-29T03:09:00,axn,27.91
2023-11-29T03:10:00,axn,27.25
2023-11-29T03:11:00,axn,27.25
2023-11-29T03:12:00,axn,27.22
2023-11-29T03:13:00,axn,27.47
2023-11-29T03:14:00,axn,27.19
2023-11-29T03:15:00,axn,27.19
2023-11-29T03:16:00,axn,27.57
2023-11-29T03:17:00,axn,27.29
2023-11-29T03:18:00,axn,27.11
2023-11-29T03:19:00,axn,27.18
2023-11-29T03:20:00,axn,27.77
2023-11-29T03:21:00,axn,32.83
2023-11-29T03:22:00,axn,27.42
2023-11-29T03:23:00,axn,26.99
2023-11-29T03:24:00,axn,27.42
2023-11-29T03:25:00,axn,27.29
2023-11-29T03:26:00,axn,27.30
2023-11-29T03:27:00,axn,27.08
2023-11-29T03:28:00,axn,30.28
2023-11-29T03:29:00,axn,30.04
2023-11-29T03:30:00,axn,26.81
2023-11-29T03:31:00,axn,26.97
2023-11-29T03:32:00,axn,26.64
2023-11-29T03:33:00,axn,26.81
2023-11-29T03:34:00,axn,31.20
2023-11-29T03:35:00,axn,31.38
2023-11-29T03:36:00,axn,31.16
2023-11-29T03:37:00,axn,26.99
2023-11-29T03:38:00,axn,26.92
2023-11-29T03:39:00,axn,27.00
2023-11-29T03:40:00,axn,26.79
2023-11-29T03:41:00,axn,26.64
2023-11-29T03:42:00,axn,26.48
2023-11-29T03:43:00,axn,26.71
2023-11-29T03:44:00,axn,26.64
2023-11-29T03:45:00,axn,26.82
2023-11-29T03:46:00,axn,26.94
2023-11-29T03:47:00,axn,26.77
2023-11-29T03:48:00,axn,27.21
2023-11-29T03:49:00,axn,26.92
2023-11-29T03:50:00,axn,26.85
2023-11-29T03:51:00,axn,26.86
2023-11-29T03:52:00,axn,26.69
2023-11-29T03:53:00,axn,26.79
2023-11-29T03:54:00,axn,26.58
2023-11-29T03:55:00,axn,26.66
2023-11-29T03:56:00,axn,26.63
2023-11-29T03:57:00,axn,26.77
2023-11-29T03:58:00,axn,26.81
2023-11-29T03:59:00,axn,26.67
2023-11-29T04:00:00,axn,26.64
2023-11-29T04:01:00,axn,26.62
2023-11-29T04:02:00,axn,26.70
2023-11-29T04:03:00,axn,26.48
2023-11-29T04:04:00,axn,26.53
2023-11-29T04:05:00,axn,26.32
2023-11-29T04:06:00,axn,26.38
2023-11-29T04:07:00,axn,26.79
2023-11-29T04:08:00,axn,26.69
2023-11-29T04:09:00,axn,26.57
2023-11-29T04:10:00,axn,27.15
2023-11-29T04:11:00,axn,26.51
2023-11-29T04:12:00,axn,26.94
2023-11-29T04:13:00,axn,26.60
2023-11-29T04:14:00,axn,26.85
2023-11-29T04:15:00,axn,27.12
2023-11-29T04:16:00,axn,27.16
2023-11-29T04:17:00,axn,27.04
2023-11-29T04:18:00,axn,32.90
2023-11-29T04:19:00,axn,33.06
2023-11-29T04:20:00,axn,32.84
2023-11-29T04:21:00,axn,32.69
2023-11-29T04:22:00,axn,26.82
2023-11-29T04:23:00,axn,26.98
2023-11-29T04:24:00,axn,26.76
2023-11-29T04:25:00,axn,27.47
2023-11-29T04:26:00,axn,26.98
2023-11-29T04:27:00,axn,27.40
2023-11-29T04:28:00,axn,27.37
2023-11-29T04:29:00,axn,27.34
2023-11-29T04:30:00,axn,27.21
2023-11-29T04:31:00,axn,27.11
2023-11-29T04:32:00,axn,27.28
2023-11-29T04:33:00,axn,26.97
2023-11-29T04:34:00,axn,26.95
2023-11-29T04:35:00,axn,27.43
2023-11-29T04:36:00,axn,27.08
2023-11-29T04:37:00,axn,27.49
2023-11-29T04:38:00,axn,27.27
2023-11-29T04:39:00,axn,27.18
2023-11-29T04:40:00,axn,27.33
2023-11-29T04:41:00,axn,27.05
2023-11-29T04:42:00,axn,27.04
2023-11-29T04:43:00,axn,44.04
2023-11-29T04:44:00,axn,26.72
2023-11-29T04:45:00,axn,26.41
2023-11-29T04:46:00,axn,26.76
2023-11-29T04:47:00,axn,26.58
2023-11-29T04:48:00,axn,26.97
2023-11-29T04:49:00,axn,26.73
2023-11-29T04:50:00,axn,26.90
2023-11-29T04:51:00,axn,27.04
2023-11-29T04:52:00,axn,41.39
2023-11-29T04:53:00,axn,51.49
2023-11-29T04:54:00,axn,51.27
2023-11-29T04:55:00,axn,51.02
2023-11-29T04:56:00,axn,51.36
2023-11-29T04:57:00,axn,30.47
2023-11-29T04:58:00,axn,27.21
2023-11-29T04:59:00,axn,27.16
2023-11-29T05:00:00,axn,26.71
2023-11-29T05:01:00,axn,25.48
2023-11-29T05:02:00,axn,25.36
2023-11-29T05:03:00,axn,27.49
2023-11-29T05:04:00,axn,25.33
2023-11-29T05:05:00,axn,25.73
2023-11-29T05:06:00,axn,26.02
2023-11-29T05:07:00,axn,25.88
2023-11-29T05:08:00,axn,26.05
2023-11-29T05:09:00,axn,27.88
2023-11-29T05:10:00,axn,30.54
2023-11-29T05:11:00,axn,32.49
2023-11-29T05:12:00,axn,34.81
2023-11-29T05:13:00,axn,36.92
2023-11-29T05:14:00,axn,36.82
2023-11-29T05:15:00,axn,36.75
2023-11-29T05:16:00,axn,36.50
2023-11-29T05:17:00,axn,36.39
2023-11-29T05:18:00,axn,37.21
2023-11-29T05:19:00,axn,37.63
2023-11-29T05:20:00,axn,37.64
2023-11-29T05:21:00,axn,37.85
2023-11-29T05:22:00,axn,37.26
2023-11-29T05:23:00,axn,36.76
2023-11-29T05:24:00,axn,37.36
2023-11-29T05:25:00,axn,36.62
2023-11-29T05:26:00,axn,36.30
2023-11-29T05:27:00,axn,36.25
2023-11-29T05:28:00,axn,35.88
2023-11-29T05:29:00,axn,35.72
2023-11-29T05:30:00,axn,35.68
2023-11-29T05:31:00,axn,36.57
2023-11-29T05:32:00,axn,36.67
2023-11-29T05:33:00,axn,36.82
2023-11-29T05:34:00,axn,35.55
2023-11-29T05:35:00,axn,35.09
2023-11-29T05:36:00,axn,35.69
2023-11-29T05:37:00,axn,34.81
2023-11-29T05:38:00,axn,34.45
2023-11-29T05:39:00,axn,34.44
2023-11-29T05:40:00,axn,34.43
2023-11-29T05:41:00,axn,34.41
2023-11-29T05:42:00,axn,34.66
2023-11-29T05:43:00,axn,50.52
2023-11-29T05:44:00,axn,34.17
2023-11-29T05:45:00,axn,34.30
2023-11-29T05:46:00,axn,34.14
2023-11-29T05:47:00,axn,33.46
2023-11-29T05:48:00,axn,33.79
2023-11-29T05:49:00,axn,33.84
2023-11-29T05:50:00,axn,33.00
2023-11-29T05:51:00,axn,33.63
2023-11-29T05:52:00,axn,33.36
2023-11-29T05:53:00,axn,33.27
2023-11-29T05:54:00,axn,33.53
2023-11-29T05:55:00,axn,33.50
2023-11-29T05:56:00,axn,33.64
2023-11-29T05:57:00,axn,33.07
2023-11-29T05:58:00,axn,34.98
2023-11-29T05:59:00,axn,33.31
2023-11-29T06:00:00,axn,33.61
2023-11-29T06:01:00,axn,33.84
2023-11-29T06:02:00,axn,33.24
2023-11-29T06:03:00,axn,33.30
2023-11-29T06:04:00,axn,33.18
2023-11-29T06:05:00,axn,33.55
2023-11-29T06:06:00,axn,33.48
2023-11-29T06:07:00,axn,33.57
2023-11-29T06:08:00,axn,33.70
2023-11-29T06:09:00,axn,33.64
2023-11-29T06:10:00,axn,33.66
2023-11-29T06:11:00,axn,33.18
2023-11-29T06:12:00,axn,32.89
2023-11-29T06:13:00,axn,32.74
2023-11-29T06:14:00,axn,32.90
2023-11-29T06:15:00,axn,32.64
2023-11-29T06:16:00,axn,32.41
2023-11-29T06:17:00,axn,32.94
2023-11-29T06:18:00,axn,32.88
2023-11-29T06:19:00,axn,33.08
2023-11-29T06:20:00,axn,32.93
2023-11-29T06:21:00,axn,33.52
2023-11-29T06:22:00,axn,32.93
2023-11-29T06:23:00,axn,32.72
2023-11-29T06:24:00,axn,33.27
2023-11-29T06:25:00,axn,33.38
2023-11-29T06:26:00,axn,32.84
2023-11-29T06:27:00,axn,32.68
2023-11-29T06:28:00,axn,32.77
2023-11-29T06:29:00,axn,32.91
2023-11-29T06:30:00,axn,33.01
2023-11-29T06:31:00,axn,33.40
2023-11-29T06:32:00,axn,33.00
2023-11-29T06:33:00,axn,33.02
2023-11-29T06:34:00,axn,32.78
2023-11-29T06:35:00,axn,33.79
2023-11-29T06:36:00,axn,33.50
2023-11-29T06:37:00,axn,33.81
2023-11-29T06:38:00,axn,33.88
2023-11-29T06:39:00,axn,35.06
2023-11-29T06:40:00,axn,35.27
2023-11-29T06:41:00,axn,35.26
2023-11-29T06:42:00,axn,36.10
2023-11-29T06:43:00,axn,35.69
2023-11-29T06:44:00,axn,35.16
2023-11-29T06:45:00,axn,38.42
2023-11-29T06:46:00,axn,35.22
2023-11-29T06:47:00,axn,35.79
2023-11-29T06:48:00,axn,36.81
2023-11-29T06:49:00,axn,36.99
2023-11-29T06:50:00,axn,37.49
2023-11-29T06:51:00,axn,36.04
2023-11-29T06:52:00,axn,37.37
2023-11-29T06:53:00,axn,38.86
2023-11-29T06:54:00,axn,37.66
2023-11-29T06:55:00,axn,38.27
2023-11-29T06:56:00,axn,39.35
2023-11-29T06:57:00,axn,37.58
2023-11-29T06:58:00,axn,37.70
2023-11-29T06:59:00,axn,38.60
2023-11-29T07:00:00,axn,38.27
2023-11-29T07:01:00,axn,39.25
2023-11-29T07:02:00,axn,39.87
2023-11-29T07:03:00,axn,37.49
2023-11-29T07:04:00,axn,38.81
2023-11-29T07:05:00,axn,38.82
2023-11-29T07:06:00,axn,39.28
2023-11-29T07:07:00,axn,40.69
2023-11-29T07:08:00,axn,39.59
2023-11-29T07:09:00,axn,38.89
2023-11-29T07:10:00,axn,42.21
2023-11-29T07:11:00,axn,39.30
2023-11-29T07:12:00,axn,38.76
2023-11-29T07:13:00,axn,39.98
2023-11-29T07:14:00,axn,41.41
2023-11-29T07:15:00,axn,41.22
2023-11-29T07:16:00,axn,38.56
2023-11-29T07:17:00,axn,41.41
2023-11-29T07:18:00,axn,40.23
2023-11-29T07:19:00,axn,40.34
2023-11-29T07:20:00,axn,40.51
2023-11-29T07:21:00,axn,38.97
2023-11-29T07:22:00,axn,41.10
2023-11-29T07:23:00,axn,39.12
2023-11-29T07:24:00,axn,40.08
2023-11-29T07:25:00,axn,40.12
2023-11-29T07:26:00,axn,38.72
2023-11-29T07:27:00,axn,38.88
2023-11-29T07:28:00,axn,38.04
2023-11-29T07:29:00,axn,39.07
2023-11-29T07:30:00,axn,38.29
2023-11-29T07:31:00,axn,38.75
2023-11-29T07:32:00,axn,42.45
2023-11-29T07:33:00,axn,42.99
2023-11-29T07:34:00,axn,43.52
2023-11-29T07:35:00,axn,43.70
2023-11-29T07:36:00,axn,43.87
2023-11-29T07:37:00,axn,42.37
2023-11-29T07:38:00,axn,43.08
2023-11-29T07:39:00,axn,42.60
2023-11-29T07:40:00,axn,42.35
2023-11-29T07:41:00,axn,42.51
2023-11-29T07:42:00,axn,43.45
2023-11-29T07:43:00,axn,43.57
2023-11-29T07:44:00,axn,41.87
2023-11-29T07:45:00,axn,44.05
2023-11-29T07:46:00,axn,42.31
2023-11-29T07:47:00,axn,45.05
2023-11-29T07:48:00,axn,42.01
2023-11-29T07:49:00,axn,42.27
2023-11-29T07:50:00,axn,42.74
2023-11-29T07:51:00,axn,42.02
2023-11-29T07:52:00,axn,43.40
2023-11-29T07:53:00,axn,45.02
2023-11-29T07:54:00,axn,45.23
2023-11-29T07:55:00,axn,43.99
2023-11-29T07:56:00,axn,42.16
2023-11-29T07:57:00,axn,43.86
2023-11-29T07:58:00,axn,44.67
2023-11-29T07:59:00,axn,42.12
2023-11-29T08:00:00,axn,42.47
2023-11-29T08:01:00,axn,44.25
2023-11-29T08:02:00,axn,44.75
2023-11-29T08:03:00,axn,44.93
2023-11-29T08:04:00,axn,44.92
2023-11-29T08:05:00,axn,45.81
2023-11-29T08:06:00,axn,45.20
2023-11-29T08:07:00,axn,45.24
2023-11-29T08:08:00,axn,45.55
2023-11-29T08:09:00,axn,45.65
2023-11-29T08:10:00,axn,45.77
2023-11-29T08:11:00,axn,47.59
2023-11-29T08:12:00,axn,46.67
2023-11-29T08:13:00,axn,45.48
2023-11-29T08:14:00,axn,45.83
2023-11-29T08:15:00,axn,48.01
2023-11-29T08:16:00,axn,46.25
2023-11-29T08:17:00,axn,47.02
2023-11-29T08:18:00,axn,49.14
2023-11-29T08:19:00,axn,46.21
2023-11-29T08:20:00,axn,47.54
2023-11-29T08:21:00,axn,45.90
2023-11-29T08:22:00,axn,46.53
2023-11-29T08:23:00,axn,47.21
2023-11-29T08:24:00,axn,48.31
2023-11-29T08:25:00,axn,45.92
2023-11-29T08:26:00,axn,48.02
2023-11-29T08:27:00,axn,47.89
2023-11-29T08:28:00,axn,48.21
2023-11-29T08:29:00,axn,46.46
2023-11-29T08:30:00,axn,46.05
2023-11-29T08:31:00,axn,46.13
2023-11-29T08:32:00,axn,45.41
2023-11-29T08:33:00,axn,59.93
2023-11-29T08:34:00,axn,59.96
2023-11-29T08:35:00,axn,59.29
2023-11-29T08:36:00,axn,59.03
2023-11-29T08:37:00,axn,58.89
2023-11-29T08:38:00,axn,58.87
2023-11-29T08:39:00,axn,46.52
2023-11-29T08:40:00,axn,45.74
2023-11-29T08:41:00,axn,45.60
2023-11-29T08:42:00,axn,46.64
2023-11-29T08:43:00,axn,45.81
2023-11-29T08:44:00,axn,46.86
2023-11-29T08:45:00,axn,48.42
2023-11-29T08:46:00,axn,46.57
2023-11-29T08:47:00,axn,64.93
2023-11-29T08:48:00,axn,48.32
2023-11-29T08:49:00,axn,49.42
2023-11-29T08:50:00,axn,47.24
2023-11-29T08:51:00,axn,48.01
2023-11-29T08:52:00,axn,47.15
2023-11-29T08:53:00,axn,48.87
2023-11-29T08:54:00,axn,48.84
2023-11-29T08:55:00,axn,46.96
2023-11-29T08:56:00,axn,46.79
2023-11-29T08:57:00,axn,49.54
2023-11-29T08:58:00,axn,49.48
2023-11-29T08:59:00,axn,49.36
2023-11-29T09:00:00,axn,46.66
2023-11-29T09:01:00,axn,49.22
2023-11-29T09:02:00,axn,49.40
2023-11-29T09:03:00,axn,46.90
2023-11-29T09:04:00,axn,47.14
2023-11-29T09:05:00,axn,52.52
2023-11-29T09:06:00,axn,52.48
2023-11-29T09:07:00,axn,52.81
2023-11-29T09:08:00,axn,47.65
2023-11-29T09:09:00,axn,47.15
2023-11-29T09:10:00,axn,47.14
2023-11-29T09:11:00,axn,48.64
2023-11-29T09:12:00,axn,48.30
2023-11-29T09:13:00,axn,48.30
2023-11-29T09:14:00,axn,48.13
2023-11-29T09:15:00,axn,47.39
2023-11-29T09:16:00,axn,50.04
2023-11-29T09:17:00,axn,50.00
2023-11-29T09:18:00,axn,48.11
2023-11-29T09:19:00,axn,49.69
2023-11-29T09:20:00,axn,49.69
2023-11-29T09:21:00,axn,50.63
2023-11-29T09:22:00,axn,63.62
2023-11-29T09:23:00,axn,60.84
2023-11-29T09:24:00,axn,58.28
2023-11-29T09:25:00,axn,60.07
2023-11-29T09:26:00,axn,58.93
2023-11-29T09:27:00,axn,48.63
2023-11-29T09:28:00,axn,49.91
2023-11-29T09:29:00,axn,49.94
2023-11-29T09:30:00,axn,47.48
2023-11-29T09:31:00,axn,49.29
2023-11-29T09:32:00,axn,49.68
2023-11-29T09:33:00,axn,47.66
2023-11-29T09:34:00,axn,49.91
2023-11-29T09:35:00,axn,47.66
2023-11-29T09:36:00,axn,47.38
2023-11-29T09:37:00,axn,47.79
2023-11-29T09:38:00,axn,47.52
2023-11-29T09:39:00,axn,47.73
2023-11-29T09:40:00,axn,47.68
2023-11-29T09:41:00,axn,49.27
2023-11-29T09:42:00,axn,50.52
2023-11-29T09:43:00,axn,49.80
2023-11-29T09:44:00,axn,49.69
2023-11-29T09:45:00,axn,49.04
2023-11-29T09:46:00,axn,49.14
2023-11-29T09:47:00,axn,50.09
2023-11-29T09:48:00,axn,48.33
2023-11-29T09:49:00,axn,49.19
2023-11-29T09:50:00,axn,48.95
2023-11-29T09:51:00,axn,50.99
2023-11-29T09:52:00,axn,49.36
2023-11-29T09:53:00,axn,48.80
2023-11-29T09:54:00,axn,49.82
2023-11-29T09:55:00,axn,51.09
2023-11-29T09:56:00,axn,48.77
2023-11-29T09:57:00,axn,51.73
2023-11-29T09:58:00,axn,49.11
2023-11-29T09:59:00,axn,49.00
2023-11-29T10:00:00,axn,49.48
2023-11-29T10:01:00,axn,52.48
2023-11-29T10:02:00,axn,50.62
2023-11-29T10:03:00,axn,49.69
2023-11-29T10:04:00,axn,49.48
2023-11-29T10:05:00,axn,51.31
2023-11-29T10:06:00,axn,49.61
2023-11-29T10:07:00,axn,51.67
2023-11-29T10:08:00,axn,49.34
2023-11-29T10:09:00,axn,50.71
2023-11-29T10:10:00,axn,49.37
2023-11-29T10:11:00,axn,49.95
2023-11-29T10:12:00,axn,48.51
2023-11-29T10:13:00,axn,51.35
2023-11-29T10:14:00,axn,48.90
2023-11-29T10:15:00,axn,50.13
2023-11-29T10:16:00,axn,50.63
2023-11-29T10:17:00,axn,51.60
2023-11-29T10:18:00,axn,49.06
2023-11-29T10:19:00,axn,48.68
2023-11-29T10:20:00,axn,49.54
2023-11-29T10:21:00,axn,50.91
2023-11-29T10:22:00,axn,49.78
2023-11-29T10:23:00,axn,49.77
2023-11-29T10:24:00,axn,49.78
2023-11-29T10:25:00,axn,49.85
2023-11-29T10:26:00,axn,50.01
2023-11-29T10:27:00,axn,50.16
2023-11-29T10:28:00,axn,49.36
2023-11-29T10:29:00,axn,51.13
2023-11-29T10:30:00,axn,49.32
2023-11-29T10:31:00,axn,49.22
2023-11-29T10:32:00,axn,52.15
2023-11-29T10:33:00,axn,49.27
2023-11-29T10:34:00,axn,49.95
2023-11-29T10:35:00,axn,51.02
2023-11-29T10:36:00,axn,49.55
2023-11-29T10:37:00,axn,49.48
2023-11-29T10:38:00,axn,48.97
2023-11-29T10:39:00,axn,49.40
2023-11-29T10:40:00,axn,50.79
2023-11-29T10:41:00,axn,48.68
2023-11-29T10:42:00,axn,50.76
2023-11-29T10:43:00,axn,47.79
2023-11-29T10:44:00,axn,51.05
2023-11-29T10:45:00,axn,50.87
2023-11-29T10:46:00,axn,48.43
2023-11-29T10:47:00,axn,49.04
2023-11-29T10:48:00,axn,53.42
2023-11-29T10:49:00,axn,48.27
2023-11-29T10:50:00,axn,49.75
2023-11-29T10:51:00,axn,59.81
2023-11-29T10:52:00,axn,60.08
2023-11-29T10:53:00,axn,59.07
2023-11-29T10:54:00,axn,57.09
2023-11-29T10:55:00,axn,58.49
2023-11-29T10:56:00,axn,58.77
2023-11-29T10:57:00,axn,58.97
2023-11-29T10:58:00,axn,59.95
2023-11-29T10:59:00,axn,56.92
2023-11-29T11:00:00,axn,58.53
2023-11-29T11:01:00,axn,57.49
2023-11-29T11:02:00,axn,57.85
2023-11-29T11:03:00,axn,57.17
2023-11-29T11:04:00,axn,61.62
2023-11-29T11:05:00,axn,72.84
2023-11-29T11:06:00,axn,60.02
2023-11-29T11:07:00,axn,60.52
2023-11-29T11:08:00,axn,74.89
2023-11-29T11:09:00,axn,70.42
2023-11-29T11:10:00,axn,70.13
2023-11-29T11:11:00,axn,72.47
2023-11-29T11:12:00,axn,56.87
2023-11-29T11:13:00,axn,56.79
2023-11-29T11:14:00,axn,56.77
2023-11-29T11:15:00,axn,57.04
2023-11-29T11:16:00,axn,59.42
2023-11-29T11:17:00,axn,59.90
2023-11-29T11:18:00,axn,56.87
2023-11-29T11:19:00,axn,57.88
2023-11-29T11:20:00,axn,57.96
2023-11-29T11:21:00,axn,60.05
2023-11-29T11:22:00,axn,59.20
2023-11-29T11:23:00,axn,57.57
2023-11-29T11:24:00,axn,59.88
2023-11-29T11:25:00,axn,60.06
2023-11-29T11:26:00,axn,58.42
2023-11-29T11:27:00,axn,59.93
2023-11-29T11:28:00,axn,59.63
2023-11-29T11:29:00,axn,61.21
2023-11-29T11:30:00,axn,60.30
2023-11-29T11:31:00,axn,58.26
2023-11-29T11:32:00,axn,57.15
2023-11-29T11:33:00,axn,56.77
2023-11-29T11:34:00,axn,56.73
2023-11-29T11:35:00,axn,56.20
2023-11-29T11:36:00,axn,55.83
2023-11-29T11:37:00,axn,55.75
2023-11-29T11:38:00,axn,56.35
2023-11-29T11:39:00,axn,55.29
2023-11-29T11:40:00,axn,55.43
2023-11-29T11:41:00,axn,55.59
2023-11-29T11:42:00,axn,55.46
2023-11-29T11:43:00,axn,55.98
2023-11-29T11:44:00,axn,55.46
2023-11-29T11:45:00,axn,55.31
2023-11-29T11:46:00,axn,55.16
2023-11-29T11:47:00,axn,55.81
2023-11-29T11:48:00,axn,55.73
2023-11-29T11:49:00,axn,55.72
2023-11-29T11:50:00,axn,56.06
2023-11-29T11:51:00,axn,56.49
2023-11-29T11:52:00,axn,56.52
2023-11-29T11:53:00,axn,56.42
2023-11-29T11:54:00,axn,56.50
2023-11-29T11:55:00,axn,57.15
2023-11-29T11:56:00,axn,59.25
2023-11-29T11:57:00,axn,58.14
2023-11-29T11:58:00,axn,58.12
2023-11-29T11:59:00,axn,58.05
2023-11-29T12:00:00,axn,59.60
2023-11-29T12:01:00,axn,59.82
2023-11-29T12:02:00,axn,60.03
2023-11-29T12:03:00,axn,59.00
2023-11-29T12:04:00,axn,59.70
2023-11-29T12:05:00,axn,59.78
2023-11-29T12:06:00,axn,61.15
2023-11-29T12:07:00,axn,61.69
2023-11-29T12:08:00,axn,61.31
2023-11-29T12:09:00,axn,59.26
2023-11-29T12:10:00,axn,58.67
2023-11-29T12:11:00,axn,58.30
2023-11-29T12:12:00,axn,58.44
2023-11-29T12:13:00,axn,60.77
2023-11-29T12:14:00,axn,58.28
2023-11-29T12:15:00,axn,59.23
2023-11-29T12:16:00,axn,58.05
2023-11-29T12:17:00,axn,60.16
2023-11-29T12:18:00,axn,61.29
2023-11-29T12:19:00,axn,58.24
2023-11-29T12:20:00,axn,58.88
2023-11-29T12:21:00,axn,60.87
2023-11-29T12:22:00,axn,58.00
2023-11-29T12:23:00,axn,58.41
2023-11-29T12:24:00,axn,60.69
2023-11-29T12:25:00,axn,58.51
2023-11-29T12:26:00,axn,60.19
2023-11-29T12:27:00,axn,60.81
2023-11-29T12:28:00,axn,61.05
2023-11-29T12:29:00,axn,77.23
2023-11-29T12:30:00,axn,60.87
2023-11-29T12:31:00,axn,59.59
2023-11-29T12:32:00,axn,61.44
2023-11-29T12:33:00,axn,58.88
2023-11-29T12:34:00,axn,60.10
2023-11-29T12:35:00,axn,57.82
2023-11-29T12:36:00,axn,57.31
2023-11-29T12:37:00,axn,59.21
2023-11-29T12:38:00,axn,59.05
2023-11-29T12:39:00,axn,57.70
2023-11-29T12:40:00,axn,57.39
2023-11-29T12:41:00,axn,57.61
2023-11-29T12:42:00,axn,55.94
2023-11-29T12:43:00,axn,58.28
2023-11-29T12:44:00,axn,59.47
2023-11-29T12:45:00,axn,57.19
2023-11-29T12:46:00,axn,58.01
2023-11-29T12:47:00,axn,57.20
2023-11-29T12:48:00,axn,57.41
2023-11-29T12:49:00,axn,56.92
2023-11-29T12:50:00,axn,57.38
2023-11-29T12:51:00,axn,58.12
2023-11-29T12:52:00,axn,57.33
2023-11-29T12:53:00,axn,56.03
2023-11-29T12:54:00,axn,56.91
2023-11-29T12:55:00,axn,58.93
2023-11-29T12:56:00,axn,58.20
2023-11-29T12:57:00,axn,49.62
2023-11-29T12:58:00,axn,50.67
2023-11-29T12:59:00,axn,48.02
2023-11-29T13:00:00,axn,51.28
2023-11-29T13:01:00,axn,47.98
2023-11-29T13:02:00,axn,48.06
2023-11-29T13:03:00,axn,50.72
2023-11-29T13:04:00,axn,51.83
2023-11-29T13:05:00,axn,50.15
2023-11-29T13:06:00,axn,50.02
2023-11-29T13:07:00,axn,48.50
2023-11-29T13:08:00,axn,50.91
2023-11-29T13:09:00,axn,49.82
2023-11-29T13:10:00,axn,59.61
2023-11-29T13:11:00,axn,59.98
2023-11-29T13:12:00,axn,61.52
2023-11-29T13:13:00,axn,60.69
2023-11-29T13:14:00,axn,61.27
2023-11-29T13:15:00,axn,60.36
2023-11-29T13:16:00,axn,59.23
2023-11-29T13:17:00,axn,60.58
2023-11-29T13:18:00,axn,56.52